Zurück zum Katalog

BLOCK DM-SL R/B

AktivGEO
NORAD 54034·ROCKET BODY·🇷🇺 Russia

Gestartet Oct 12, 2022 von Baikonur Cosmodrome

Loading…

TLE

AktuellSource: Space-Track

Epoche: Sep 14, 2026, 03:03 UTC

1 54034U 22131B   26257.12739197 -.00000070  00000-0  00000-0 0  9994
2 54034   3.6176  77.9905 0076785  41.7040 319.2695  0.97748658 13998

Verfolge BLOCK DM-SL R/B in Echtzeit mit AllMySat

Download on the App Store